Tracking 27107 objects as of 21-Mar-2023
HD Live streaming from Space Station
objects crossing your sky now

STARLINK-4259

Track STARLINK-4259 now!
10-day predictions
STARLINK-4259 is classified as:


NORAD ID: 52987
Int'l Code: 2022-076B
Perigee: 545.9 km
Apogee: 547.8 km
Inclination: 53.2 °
Period: 95.4 minutes
Semi major axis: 6917 km
RCS: Unknown
Launch date: July 7, 2022
Source: United States (US)
Launch site: AIR FORCE EASTERN TEST RANGE (AFETR)
Your satellite tracking list
Your tracking list is empty




NASA's NSSDC Master Catalog

Two Line Element Set (TLE):
1 52987U 22076B   23079.87113357  .00004683  00000-0  31201-3 0  9995
2 52987  53.2140 294.0549 0001372  80.1185 279.9962 15.08853924 38939
Source of the keplerian elements: AFSPC